Zurück zum Katalog

THOR ABLESTAR DEB

AktivLEO
NORAD 17648·DEBRIS·🇺🇸 United States

Gestartet Jun 29, 1961 von Cape Canaveral Space Force Station

Loading…

Nächste Überflüge (nächste 24 Stunden)

TLE

AktuellSource: Space-Track

Epoche: Sep 14, 2026, 08:43 UTC

1 17648U 61015LH  26257.36379274  .00002498  00000-0  98773-3 0  9992
2 17648  65.7280 240.3801 0048078 103.6944 256.9505 14.30116301769877

Verfolge THOR ABLESTAR DEB in Echtzeit mit AllMySat

Download on the App Store